Location: Mesa Vista Observatory
(35.5777°N, 105.6987°W)
Time: 03:44:04
(UTC-06:00)

Envisat - Visible Passes

Search period start: 16 October 2019 00:00
Search period end: 26 October 2019 00:00
Orbit: 764 x 766 km, 98.1° (Epoch: 15 October)

Date Brightness Start Highest point End Pass type
(mag) Time Alt. Az. Time Alt. Az. Time Alt. Az.
16 Oct 3.0 18:58:06 10° SSE 19:03:06 64° ENE 19:08:07 10° N visible
16 Oct 6.2 20:40:35 10° WSW 20:42:30 12° W 20:44:26 10° WNW visible
17 Oct 5.0 20:01:05 10° SSW 20:05:27 29° W 20:09:50 10° NW visible
18 Oct 6.7 06:36:13 10° ENE 06:37:48 11° E 06:39:23 10° ESE visible
18 Oct 3.3 19:23:32 10° S 19:28:34 70° W 19:33:38 10° NNW visible
19 Oct 3.2 18:47:01 10° SSE 18:51:53 49° ENE 18:56:46 10° N visible
19 Oct 5.9 20:28:06 10° SW 20:31:08 16° W 20:34:11 10° NW visible
20 Oct 4.5 19:49:27 10° SSW 19:54:07 37° W 19:58:50 10° NNW visible
21 Oct 3.0 19:12:15 10° SSE 19:17:19 90° WSW 19:22:24 10° NNW visible
22 Oct 3.5 18:36:01 10° SE 18:40:40 38° ENE 18:45:21 10° N visible
22 Oct 5.5 20:16:03 10° SW 20:19:46 21° W 20:23:32 10° NW visible
23 Oct 6.2 06:48:58 10° NE 06:52:11 17° E 06:55:23 10° SE visible
23 Oct 4.0 19:37:57 10° S 19:42:50 48° W 19:47:44 10° NNW visible
24 Oct 2.9 19:01:03 10° SSE 19:06:04 71° ENE 19:11:08 10° N visible
24 Oct 6.2 20:44:24 10° WSW 20:45:31 11° W 20:46:39 10° WNW visible
25 Oct 5.1 20:04:13 10° SSW 20:08:26 26° W 20:12:41 10° NW visible
